Date,TemperatureHighF,TemperatureAvgF,TemperatureLowF,DewpointHighF,DewpointAvgF,DewpointLowF,HumidityHigh,HumidityAvg,HumidityLow,PressureMaxIn,PressureMinIn,WindSpeedMaxMPH,WindSpeedAvgMPH,GustSpeedMaxMPH,PrecipitationSumIn
2013-5-1,73.4,62.8,51.1,57.9,53.4,50.1,100,74,48,30.17,30.04,12,2,17,0.00
2013-5-2,73.9,63.4,52.6,57.2,53.1,49.9,95,70,50,30.17,30.08,10,2,14,0.00
2013-5-3,69.6,60.8,51.8,54.3,50.1,44.7,92,69,46,30.12,29.97,13,2,20,0.00
2013-5-4,65.9,58.4,52.0,51.6,44.9,33.8,94,61,49,29.98,29.87,14,5,20,0.10
2013-5-5,57.5,52.5,49.0,54.2,49.6,45.9,98,90,77,29.92,29.76,14,2,20,0.54
2013-5-6,67.9,57.2,49.1,56.8,52.1,47.7,100,85,50,29.86,29.70,7,1,16,0.80
2013-5-7,62.1,54.4,44.9,55.5,50.9,44.9,100,89,68,29.90,29.82,6,0,8,0.03
2013-5-8,67.1,58.9,53.6,60.6,56.0,53.6,100,91,66,30.00,29.86,11,0,15,0.06
2013-5-9,75.1,59.2,49.4,63.0,55.8,49.4,100,90,52,30.07,29.97,8,0,12,0.00
2013-5-10,74.2,64.8,51.5,62.8,59.2,51.5,100,83,63,29.99,29.87,7,0,14,0.00
2013-5-11,71.3,62.3,52.8,62.7,58.4,50.5,100,88,68,29.94,29.79,9,1,14,0.06
2013-5-12,60.0,52.7,42.7,51.4,41.0,32.1,97,68,36,30.12,29.92,13,1,18,0.01
2013-5-13,61.9,49.0,34.7,40.5,34.6,27.6,96,63,28,30.22,30.11,12,1,18,0.00
2013-5-14,73.0,54.9,35.7,55.5,44.7,34.7,97,72,41,30.25,30.00,11,1,18,0.00
2013-5-15,80.9,65.8,53.1,63.2,57.1,52.6,98,76,46,30.10,29.92,14,1,20,0.00
2013-5-16,76.2,64.5,52.3,62.5,57.8,51.8,100,81,55,30.02,29.94,8,1,13,0.09
2013-5-17,78.9,66.0,54.2,65.3,59.7,54.2,100,83,53,30.08,29.97,3,0,8,0.00
2013-5-18,72.0,64.0,58.7,67.6,62.8,58.0,100,96,79,30.06,29.98,5,0,7,0.64
2013-5-19,76.5,67.4,61.6,70.4,65.8,61.6,100,95,74,30.04,29.94,6,0,8,0.17
2013-5-20,78.7,67.9,60.2,69.7,64.8,60.2,100,91,66,30.10,29.95,5,0,9,0.04
2013-5-21,83.5,69.2,59.9,71.6,65.0,59.9,100,88,59,30.03,29.86,8,1,28,0.84
2013-5-22,83.3,67.0,57.8,69.9,63.2,57.8,100,89,56,29.94,29.79,17,1,30,0.25
2013-5-23,77.8,66.5,60.7,67.0,61.8,55.7,100,86,60,29.95,29.82,11,1,16,0.11
2013-5-24,65.1,57.6,45.9,56.3,47.4,36.5,99,71,36,30.28,29.94,13,2,16,0.02
2013-5-25,69.4,55.2,39.0,51.3,43.8,31.1,100,70,25,30.37,30.17,7,0,13,0.00
2013-5-26,73.2,61.7,52.7,55.9,49.6,44.2,95,67,43,30.28,30.16,6,1,12,0.00
2013-5-27,80.2,65.1,49.4,63.4,56.5,49.1,99,77,46,30.21,30.04,8,0,14,0.00
2013-5-28,82.5,69.0,55.5,65.3,61.2,55.2,100,79,50,30.15,30.03,10,0,16,0.00
2013-5-29,84.0,69.9,55.8,67.4,61.8,55.2,99,78,46,30.18,30.05,5,0,11,0.00
2013-5-30,85.6,71.2,57.0,69.6,62.0,56.4,99,75,41,30.20,30.04,5,0,10,0.00
2013-5-31,85.4,71.8,58.7,69.0,63.3,57.6,97,77,45,30.14,30.00,8,0,12,0.00